Weather History for Fernandina Beach, FL

Change the Weather History Date:

Wednesday, August 28, 2013

  Actual Average (KJAX) Record (KJAX)
Temperature  
Mean Temperature 79 °F 81 °F  
Max Temperature 87 °F 90 °F 97 °F (1959)
Min Temperature 71 °F 72 °F 65 °F (1984)
Degree Days  
Heating Degree Days 0 0  
Month to date heating degree days 0  
Since 1 June heating degree days 0  
Since 1 July heating degree days 0  
Cooling Degree Days 14 16  
Month to date cooling degree days 471  
Year to date cooling degree days 1940  
Since 1 June cooling degree days 1456  
Growing Degree Days 29 (Base 50)    
Moisture  
Dew Point 74 °F    
Average Humidity 83    
Maximum Humidity 100    
Minimum Humidity 62    
Precipitation  
Precipitation 0.00 in 0.25 in 7.82 in (1968)
Month to date precipitation 6.03  
Year to date precipitation 34.59  
Snow  
Snow 0.00 in 0.00 in 0.00 in (2002)
Month to date snowfall 0.0  
Since 1 June snowfall 0.0  
Since 1 July snowfall 0.0  
Snow Depth -    
Sea Level Pressure  
Sea Level Pressure 30.02 in    
Wind  
Wind Speed 3 mph (SSE)    
Max Wind Speed 13 mph    
Max Gust Speed -    
Visibility 10 miles    
Events      
T = Trace of Precipitation, MM = Missing Value Source: NWS Daily Summary

Daily Weather History Graph

Daily Weather History Graph

Search for Another Location

Airport:

Trip Planner

Search our weather history database for the weather conditions in past years. The results will help you decide how hot, cold, wet, or windy it might be!

Date:

Astronomy

Aug. 28, 2013 Rise Set
Actual Time 7:00 AM EDT 7:53 PM EDT
Civil Twilight 6:35 AM EDT 8:17 PM EDT
Nautical Twilight 6:06 AM EDT 8:46 PM EDT
Astronomical Twilight 5:36 AM EDT 9:16 PM EDT
Moon 12:17 AM EDT (8/28) 2:18 PM EDT (8/28)
Length of Visible Light 13h 42m
Length of Day
12h 53m
Waning Gibbous, 47% of the Moon is Illuminated
Aug 28
Waning Gibbous
Sep 5
New
Sep 12
First Quarter
Sep 19
Full
Sep 26
Last Quarter

Hourly Weather History & Observations

Time (EDT) Temp. Heat Index Dew Point Humidity Pressure Visibility Wind Dir Wind Speed Gust Speed Precip Events Conditions
12:15 AM 75.2 °F - 73.4 °F 94% 30.05 in 10.0 mi Calm Calm - N/A   Clear
12:35 AM 75.2 °F - 73.4 °F 94% 30.04 in 10.0 mi Calm Calm - N/A   Scattered Clouds
12:55 AM 73.4 °F - 73.4 °F 100% 30.04 in 10.0 mi Calm Calm - N/A   Scattered Clouds
1:15 AM 75.2 °F - 73.4 °F 94% 30.04 in 10.0 mi Calm Calm - N/A   Scattered Clouds
1:35 AM 73.4 °F - 73.4 °F 100% 30.04 in 10.0 mi Calm Calm - N/A   Clear
1:55 AM 73.4 °F - 73.4 °F 100% 30.04 in 10.0 mi Calm Calm - N/A   Clear
2:15 AM 73.4 °F - 73.4 °F 100% 30.03 in 10.0 mi Calm Calm - N/A   Clear
2:35 AM 73.4 °F - 73.4 °F 100% 30.03 in 10.0 mi Calm Calm - N/A   Clear
2:55 AM 73.4 °F - 73.4 °F 100% 30.02 in 10.0 mi Calm Calm - N/A   Clear
3:15 AM 73.4 °F - 73.4 °F 100% 30.02 in 10.0 mi West 3.5 mph - N/A   Clear
3:35 AM 73.4 °F - 73.4 °F 100% 30.01 in 10.0 mi Calm Calm - N/A   Clear
3:55 AM 73.4 °F - 73.4 °F 100% 30.00 in 10.0 mi Calm Calm - N/A   Clear
4:15 AM 73.4 °F - 73.4 °F 100% 30.00 in 10.0 mi Calm Calm - N/A   Clear
4:35 AM 73.4 °F - 73.4 °F 100% 30.00 in 10.0 mi Calm Calm - N/A   Clear
4:55 AM 71.6 °F - 71.6 °F 100% 30.00 in 10.0 mi Calm Calm - N/A   Clear
5:15 AM 73.4 °F - 73.4 °F 100% 30.00 in 10.0 mi Calm Calm - N/A   Clear
5:35 AM 73.4 °F - 73.4 °F 100% 30.00 in 10.0 mi Calm Calm - N/A   Clear
5:55 AM 73.4 °F - 73.4 °F 100% 30.00 in 10.0 mi Calm Calm - N/A   Clear
6:15 AM 71.6 °F - 71.6 °F 100% 30.00 in 10.0 mi Calm Calm - N/A   Clear
6:35 AM 71.6 °F - 71.6 °F 100% 30.00 in 10.0 mi Calm Calm - N/A   Clear
6:55 AM 71.6 °F - 71.6 °F 100% 30.00 in 10.0 mi Calm Calm - N/A   Clear
7:15 AM 71.6 °F - 71.6 °F 100% 30.01 in 10.0 mi Calm Calm - N/A   Clear
7:35 AM 73.4 °F - 73.4 °F 100% 30.03 in 10.0 mi Calm Calm - N/A   Clear
7:55 AM 73.4 °F - 73.4 °F 100% 30.03 in 10.0 mi Calm Calm - N/A   Clear
8:15 AM 75.2 °F - 75.2 °F 100% 30.04 in 10.0 mi Calm Calm - N/A   Scattered Clouds
8:35 AM 77.0 °F - 77.0 °F 100% 30.04 in 10.0 mi Calm Calm - N/A   Overcast
8:55 AM 78.8 °F - 77.0 °F 94% 30.04 in 10.0 mi Calm Calm - N/A   Mostly Cloudy
9:15 AM 78.8 °F - 77.0 °F 94% 30.04 in 10.0 mi West 3.5 mph - N/A   Scattered Clouds
9:35 AM 80.6 °F 86.2 °F 75.2 °F 84% 30.05 in 10.0 mi Calm Calm - N/A   Scattered Clouds
9:55 AM 82.4 °F 88.2 °F 73.4 °F 74% 30.05 in 10.0 mi WSW 4.6 mph - N/A   Scattered Clouds
10:15 AM 82.4 °F 88.2 °F 73.4 °F 74% 30.06 in 10.0 mi WSW 3.5 mph - N/A   Scattered Clouds
10:35 AM 82.4 °F 88.2 °F 73.4 °F 74% 30.06 in 10.0 mi SSW 3.5 mph - N/A   Mostly Cloudy
10:55 AM 82.4 °F 88.2 °F 73.4 °F 74% 30.06 in 10.0 mi SSW 3.5 mph - N/A   Scattered Clouds
11:15 AM 86.0 °F 93.4 °F 73.4 °F 66% 30.06 in 10.0 mi SSW 4.6 mph - N/A   Scattered Clouds
11:35 AM 84.2 °F 89.6 °F 71.6 °F 66% 30.06 in 10.0 mi Calm Calm - N/A   Mostly Cloudy
11:55 AM 86.0 °F 93.4 °F 73.4 °F 66% 30.06 in 10.0 mi ESE 4.6 mph - N/A   Scattered Clouds
12:15 PM 86.0 °F 95.1 °F 75.2 °F 70% 30.06 in 10.0 mi SSE 6.9 mph - N/A   Scattered Clouds
12:35 PM 86.0 °F 95.1 °F 75.2 °F 70% 30.06 in 10.0 mi SE 8.1 mph - N/A   Mostly Cloudy
12:55 PM 86.0 °F 93.4 °F 73.4 °F 66% 30.05 in 10.0 mi SE 9.2 mph - N/A   Scattered Clouds
1:15 PM 86.0 °F 93.4 °F 73.4 °F 66% 30.05 in 10.0 mi ESE 9.2 mph - N/A   Clear
1:35 PM 87.8 °F 95.6 °F 73.4 °F 62% 30.05 in 10.0 mi SE 9.2 mph - N/A   Scattered Clouds
1:55 PM 86.0 °F 93.4 °F 73.4 °F 66% 30.05 in 10.0 mi SE 10.4 mph - N/A   Scattered Clouds
2:15 PM 86.0 °F 93.4 °F 73.4 °F 66% 30.04 in 10.0 mi SE 10.4 mph - N/A   Scattered Clouds
2:35 PM 86.0 °F 93.4 °F 73.4 °F 66% 30.04 in 10.0 mi ESE 8.1 mph - N/A   Scattered Clouds
2:55 PM 87.8 °F 97.6 °F 75.2 °F 66% 30.03 in 10.0 mi ESE 9.2 mph - N/A   Clear
3:15 PM 86.0 °F 95.1 °F 75.2 °F 70% 30.02 in 10.0 mi SSE 10.4 mph - N/A   Scattered Clouds
3:35 PM 86.0 °F 95.1 °F 75.2 °F 70% 30.01 in 10.0 mi SE 11.5 mph - N/A   Clear
3:55 PM 86.0 °F 95.1 °F 75.2 °F 70% 30.00 in 10.0 mi SE 11.5 mph - N/A   Clear
4:15 PM 86.0 °F 95.1 °F 75.2 °F 70% 29.99 in 10.0 mi SE 10.4 mph - N/A   Clear
4:35 PM 86.0 °F 95.1 °F 75.2 °F 70% 29.99 in 10.0 mi SE 10.4 mph - N/A   Scattered Clouds
4:55 PM 86.0 °F 95.1 °F 75.2 °F 70% 29.99 in 10.0 mi SE 10.4 mph - N/A   Clear
5:15 PM 86.0 °F 95.1 °F 75.2 °F 70% 29.99 in 10.0 mi SE 10.4 mph - N/A   Clear
5:35 PM 86.0 °F 95.1 °F 75.2 °F 70% 29.98 in 10.0 mi SE 9.2 mph - N/A   Clear
5:55 PM 86.0 °F 93.4 °F 73.4 °F 66% 29.98 in 10.0 mi SE 9.2 mph - N/A   Clear
6:15 PM 86.0 °F 93.4 °F 73.4 °F 66% 29.98 in 10.0 mi SSE 12.7 mph - N/A   Clear
6:35 PM 84.2 °F 90.9 °F 73.4 °F 70% 29.98 in 10.0 mi SSE 9.2 mph - N/A   Clear
6:55 PM 84.2 °F 90.9 °F 73.4 °F 70% 29.98 in 10.0 mi SSE 10.4 mph - N/A   Clear
7:15 PM 82.4 °F 88.2 °F 73.4 °F 74% 29.98 in 10.0 mi SSE 8.1 mph - N/A   Clear
7:35 PM 82.4 °F 88.2 °F 73.4 °F 74% 29.98 in 10.0 mi SSE 8.1 mph - N/A   Clear
7:55 PM 82.4 °F 88.2 °F 73.4 °F 74% 29.99 in 10.0 mi SSE 8.1 mph - N/A   Clear
8:15 PM 80.6 °F 85.4 °F 73.4 °F 79% 29.99 in 10.0 mi South 5.8 mph - N/A   Clear
8:35 PM 80.6 °F 85.4 °F 73.4 °F 79% 29.99 in 10.0 mi South 5.8 mph - N/A   Clear
8:55 PM 80.6 °F 85.4 °F 73.4 °F 79% 30.00 in 10.0 mi South 4.6 mph - N/A   Scattered Clouds
9:15 PM 80.6 °F 85.4 °F 73.4 °F 79% 30.00 in 10.0 mi South 5.8 mph - N/A   Clear
9:35 PM 80.6 °F 85.4 °F 73.4 °F 79% 30.01 in 10.0 mi South 5.8 mph - N/A   Scattered Clouds
9:55 PM 80.6 °F 85.4 °F 73.4 °F 79% 30.01 in 10.0 mi South 4.6 mph - N/A   Scattered Clouds
10:15 PM 78.8 °F - 73.4 °F 83% 30.01 in 10.0 mi South 4.6 mph - N/A   Scattered Clouds
10:35 PM 78.8 °F - 73.4 °F 83% 30.02 in 10.0 mi SSW 3.5 mph - N/A   Scattered Clouds
10:55 PM 78.8 °F - 73.4 °F 83% 30.02 in 10.0 mi SSW 5.8 mph - N/A   Clear
11:15 PM 78.8 °F - 75.2 °F 89% 30.02 in 10.0 mi SSW 5.8 mph - N/A   Clear
11:35 PM 78.8 °F - 73.4 °F 83% 30.02 in 10.0 mi South 5.8 mph - N/A   Clear
11:55 PM 78.8 °F - 73.4 °F 83% 30.02 in 10.0 mi South 6.9 mph - N/A   Clear